Location: Roanoke
(37.2710°N, 79.9420°W)
Time: 00:31:51
(UTC-05:00)

S-56A Canister/Altair - Pass Details

Date: 20 November 2019
Orbit: 633 x 2499 km, 38.9° (Epoch: 11 December)

Event Time Altitude Azimuth Distance (km) Brightness Sun altitude
Rises 13:32:31 0° 194° (SSW) 6,064 13.3 29.4°
Reaches altitude 10° 13:38:16 10° 180° (S) 4,867 12.8 28.9°
Maximum altitude 13:46:43 20° 140° (SE) 3,687 11.5 28.2°
Drops below altitude 10° 13:53:40 10° 100° (E) 3,940 11.0 27.5°
Sets 13:57:34 0° 84° (E) 4,608 11.2 27.2°
